KB4JHU-15 Weather Reports


time (UTC)temp
C
wind
direction
speed
KPH
gust
KPH
rain 1hr
cm
rain 24hr
cm
rain mn
cm
humidity
%
barometer
mb
20260906122843 21 360 0.0 0.0 0.00 0.41 0.41 98
20260906115842 21 360 0.0 0.0 0.00 0.41 0.41 98
20260906112841 21 360 0.0 0.0 0.00 0.41 0.41 98
20260906105840 21 360 0.0 0.0 0.00 0.41 0.41 98
20260906102839 21 360 0.0 0.0 0.03 0.41 0.41 98
20260906095838 21 360 0.0 0.0 0.03 0.41 0.41 98
20260906092837 22 360 0.0 0.0 0.00 0.38 0.38 97
20260906085836 22 360 0.0 0.0 0.00 0.38 0.38 97
20260906082835 22 360 0.0 0.0 0.00 0.38 0.38 97
20260906075834 22 340 1.6 1.6 0.03 0.38 0.38 94
20260906072833 22 270 3.2 3.2 0.15 0.38 0.38 93
20260906065832 22 259 1.6 3.2 0.30 0.36 0.36 94
20260906062831 23 311 3.2 3.2 0.23 0.23 0.23 94
20260906055830 23 69 4.8 8.0 0.05 0.05 0.05 89
20260906052829 25 110 3.2 4.8 0.00 0.00 0.00 79
20260906045828 26 159 3.2 3.2 0.00 0.00 0.00 74
20260906042827 26 312 4.8 4.8 0.00 0.00 0.00 78
20260906035826 26 360 0.0 1.6 0.00 0.00 0.00 79
20260906032825 26 360 0.0 0.0 0.00 0.00 0.00 78
20260906025824 26 319 1.6 3.2 0.00 0.00 0.00 76
20260906022823 26 360 0.0 0.0 0.00 0.00 0.00 74
20260906015822 27 360 0.0 0.0 0.00 0.00 0.00 73
20260906012821 26 360 0.0 0.0 0.00 0.00 0.00 72
20260906005820 29 360 0.0 0.0 0.00 0.00 0.00 65
20260906002819 28 360 0.0 0.0 0.00 0.00 0.00 65
20260905235818 30 360 0.0 1.6 0.00 0.00 0.00 59
20260905232817 30 360 0.0 0.0 0.00 0.00 0.00 54
20260905225816 30 205 1.6 1.6 0.00 0.00 0.00 54
20260905222815 30 84 6.4 8.0 0.00 0.00 0.00 53
20260905215814 33 93 14.5 14.5 0.00 0.00 0.00 44
20260905212813 36 34 3.2 3.2 0.00 0.00 0.00 40
20260905205812 37 37 3.2 4.8 0.00 0.00 0.00 36
20260905202811 36 11 4.8 4.8 0.00 0.00 0.00 38
20260905195810 36 318 6.4 8.0 0.00 0.00 0.00 40
20260905192809 36 27 6.4 6.4 0.00 0.00 0.00 40
20260905185808 36 87 6.4 6.4 0.00 0.00 0.00 42
20260905182807 37 20 6.4 6.4 0.00 0.00 0.00 40
20260905175806 36 68 6.4 6.4 0.00 0.00 0.00 40
20260905172805 36 56 6.4 6.4 0.00 0.00 0.00 42
20260905165804 36 20 4.8 4.8 0.00 0.00 0.00 43
20260905162803 35 125 3.2 3.2 0.00 0.00 0.00 45
20260905155802 33 52 3.2 3.2 0.00 0.00 0.00 49
20260905152801 32 58 1.6 3.2 0.00 0.00 0.00 53
20260905145800 30 93 3.2 3.2 0.00 0.00 0.00 64
20260905142802 28 21 1.6 1.6 0.00 0.00 0.00 72
20260905135758 27 360 0.0 0.0 0.00 0.00 0.00 78
20260905132757 26 360 0.0 0.0 0.00 0.00 0.00 85
20260905125756 24 360 0.0 0.0 0.00 0.00 0.00 91